Flag for Canada Weather past 2 weeks in Greater Sudbury, Ontario, Canada

41 °F

Mostly cloudy.

Feels Like: 33 °F
Forecast: 40 / 46 °F
Wind: 14 mph from South

Location: Sudbury

Current Time: Nov 26, 2015 at 6:31:52 AM

Latest Report: Nov 26, 2015 at 6:00 AM

Visibility: 8 mi

Pressure: 30.27 "Hg

Humidity: 93%

Dew point: 39 °F

Location of Greater SudburyLocation

Historic Weather in Greater Sudbury — Graph


Greater Sudbury temperature yesterday

Maximum temperature yesterday: 37 °F (at 12:00 PM)
Minimum temperature yesterday: 27 °F (at 12:00 AM)
Average temperature yesterday: 33 °F

Past Weeks' High & Low Weather Summary

High54 °F (Nov 18, 1:00 PM)100% (Nov 11, 5:00 AM)30.48 "Hg (Nov 11, 5:00 AM)
Low14 °F (Nov 23, 12:00 AM)42% (Nov 16, 3:00 PM)29.18 "Hg (Nov 12, 4:00 PM)
Average33 °F83%30.00 "Hg
* Reported Nov 11 5:00 AM — Nov 26 5:00 AM, Greater Sudbury, Weather by CustomWeather, © 2015

Note: Actual official high and low records may vary slightly from our data, if they occured in-between our weather recording intervals... More about our weather records


Greater Sudbury weather history for previous 24 hours

Time TempWeatherWind HumidityBarometerVisibility
5:00 AM
Thu, Nov 26
41 °FSprinkles. Overcast.15 mph93%30.26 "Hg10 mi
4:00 AM41 °FSprinkles. Overcast.16 mph93%30.25 "Hg10 mi
3:00 AM39 °FOvercast.17 mph93%30.26 "Hg8 mi
2:00 AM39 °FLight rain. Overcast.20 mph87%30.25 "Hg12 mi
1:00 AM39 °FLight rain. Overcast.17 mph87%30.27 "Hg10 mi
12:00 AM37 °FLight rain. Overcast.15 mph87%30.29 "Hg12 mi
11:00 PM
Wed, Nov 25
37 °FOvercast.20 mph87%30.27 "Hg12 mi
10:00 PM37 °FMostly cloudy.22 mph81%30.29 "Hg10 mi
9:00 PM36 °FHigh level clouds.18 mph87%30.29 "Hg10 mi
8:00 PM36 °FPassing clouds.18 mph87%30.31 "Hg10 mi
7:00 PM36 °FOvercast.17 mph87%30.32 "Hg10 mi
6:00 PM36 °FMostly cloudy.21 mph87%30.33 "Hg10 mi
5:00 PM37 °FMostly cloudy.22 mph81%30.33 "Hg10 mi
4:00 PM37 °FCloudy.21 mph81%30.34 "Hg10 mi
3:00 PM37 °FMostly cloudy.24 mph81%30.34 "Hg15 mi
2:00 PM37 °FOvercast.23 mph81%30.37 "Hg15 mi
1:00 PM36 °FOvercast.21 mph87%30.41 "Hg20 mi
12:00 PM37 °FPartly sunny.22 mph81%30.43 "Hg20 mi
11:00 AM36 °FBroken clouds.18 mph87%30.46 "Hg20 mi
10:00 AM34 °FPartly sunny.16 mph87%30.47 "Hg20 mi
9:00 AM30 °FPartly sunny.12 mph93%30.48 "Hg20 mi
8:00 AM28 °FPartly sunny.12 mph100%30.48 "Hg20 mi
7:00 AM28 °FPassing clouds.12 mph93%30.47 "Hg15 mi
6:00 AM28 °FOvercast.12 mph93%30.47 "Hg15 mi
Weather by CustomWeather, © 2015

See weather overviewHow to use our weather pages